Weather History for Oxford, CT

Change the Weather History Date:

Sunday, March 27, 2011

  Actual Average Record
Temperature  
Mean Temperature 30 °F -  
Max Temperature 39 °F 47 °F 78 °F (1998)
Min Temperature 21 °F 31 °F 17 °F (2001)
Degree Days  
Heating Degree Days 35    
Moisture  
Dew Point 5 °F    
Average Humidity 38    
Maximum Humidity 63    
Minimum Humidity 22    
Precipitation  
Precipitation 0.00 in - - ()
Sea Level Pressure  
Sea Level Pressure 29.92 in    
Wind  
Wind Speed 10 mph (NW)    
Max Wind Speed 23 mph    
Max Gust Speed 30 mph    
Visibility 10 miles    
Events      
Averages and records for this station are not official NWS values.
T = Trace of Precipitation, MM = Missing Value Source: NWS Daily Summary

Daily Weather History Graph

Daily Weather History Graph

Search for Another Location

Airport:

Trip Planner

Search our weather history database for the weather conditions in past years. The results will help you decide how hot, cold, wet, or windy it might be!

Date:

Astronomy

Mar. 27, 2011 Rise Set
Actual Time 6:44 AM EDT 7:12 PM EDT
Civil Twilight 6:16 AM EDT 7:39 PM EDT
Nautical Twilight 5:44 AM EDT 8:12 PM EDT
Astronomical Twilight 5:10 AM EDT 8:46 PM EDT
Moon 3:01 AM EDT (3/27) 12:45 PM EDT (3/27)
Length of Visible Light 13h 23m
Length of Day
12h 27m
Last Quarter, 38% of the Moon is Illuminated
Mar 27
Last Quarter
Apr 3
New
Apr 11
First Quarter
Apr 17
Full
Apr 24
Last Quarter

Hourly Weather History & Observations

Time (EDT) Temp. Windchill Dew Point Humidity Pressure Visibility Wind Dir Wind Speed Gust Speed Precip Events Conditions
12:15 AM 24.8 °F 12.9 °F 6.8 °F 46% 29.99 in 10.0 mi NW 13.8 mph - N/A   Clear
12:55 AM 24.8 °F 15.3 °F 6.8 °F 46% 29.99 in 10.0 mi NNW 9.2 mph - N/A   Clear
1:15 AM 24.8 °F 16.1 °F 6.8 °F 46% 29.98 in 10.0 mi NW 8.1 mph 17.3 mph N/A   Clear
1:55 AM 24.8 °F 16.1 °F 6.8 °F 46% 29.98 in 10.0 mi NW 8.1 mph - N/A   Clear
2:15 AM 23.0 °F 14.7 °F 8.6 °F 54% 29.98 in 10.0 mi NW 6.9 mph - N/A   Clear
2:35 AM 23.0 °F 15.8 °F 8.6 °F 54% 29.99 in 10.0 mi NW 5.8 mph - N/A   Clear
2:55 AM 23.0 °F 13.9 °F 8.6 °F 54% 29.99 in 10.0 mi NNW 8.1 mph - N/A   Clear
3:15 AM 23.0 °F 17.0 °F 8.6 °F 54% 29.98 in 10.0 mi NW 4.6 mph - N/A   Clear
3:35 AM 23.0 °F 13.1 °F 8.6 °F 54% 29.97 in 10.0 mi NW 9.2 mph - N/A   Clear
3:55 AM 23.0 °F 15.8 °F 8.6 °F 54% 29.97 in 10.0 mi WNW 5.8 mph - N/A   Clear
4:15 AM 23.0 °F 15.8 °F 8.6 °F 54% 29.97 in 10.0 mi WNW 5.8 mph - N/A   Clear
4:35 AM 23.0 °F 15.8 °F 8.6 °F 54% 29.97 in 10.0 mi WNW 5.8 mph - N/A   Clear
4:55 AM 21.2 °F 13.6 °F 8.6 °F 58% 29.96 in 10.0 mi WNW 5.8 mph - N/A   Clear
5:15 AM 21.2 °F 13.6 °F 8.6 °F 58% 29.96 in 10.0 mi WNW 5.8 mph - N/A   Clear
5:35 AM 21.2 °F 13.6 °F 8.6 °F 58% 29.96 in 10.0 mi West 5.8 mph - N/A   Clear
5:45 AM 21.2 °F 10.9 °F 8.6 °F 58% 29.96 in 10.0 mi WNW 9.2 mph - N/A   Clear
6:45 AM 21.2 °F 11.7 °F 10.4 °F 63% 29.95 in 10.0 mi NW 8.1 mph - N/A   Clear
8:45 AM 26.6 °F 15.2 °F 8.6 °F 47% 29.97 in 10.0 mi NNW 13.8 mph 24.2 mph N/A   Clear
9:45 AM 28.4 °F 14.4 °F 6.8 °F 40% 29.96 in 10.0 mi NNW 23.0 mph 29.9 mph N/A   Clear
10:45 AM 30.2 °F 18.9 °F 5.0 °F 34% 29.95 in 10.0 mi NNW 16.1 mph 26.5 mph N/A   Clear
11:45 AM 32.0 °F 22.1 °F 6.8 °F 35% 29.93 in 10.0 mi NNW 13.8 mph 27.6 mph N/A   Clear
12:45 PM 33.8 °F 23.5 °F 6.8 °F 32% 29.91 in 10.0 mi NW 16.1 mph 23.0 mph N/A   Clear
1:45 PM 35.6 °F 29.2 °F 8.6 °F 33% - - WNW 8.1 mph 19.6 mph N/A   Clear
2:45 PM 37.4 °F 29.3 °F 8.6 °F 30% 29.85 in 10.0 mi NNW 12.7 mph 20.7 mph N/A   Clear
3:45 PM 39.2 °F 33.6 °F 8.6 °F 28% 29.84 in 10.0 mi WNW 8.1 mph 18.4 mph N/A   Clear
4:55 PM 39.2 °F 30.8 °F 6.8 °F 26% 29.82 in 10.0 mi NNW 15.0 mph 20.7 mph N/A   Clear
5:15 PM 39.2 °F 33.0 °F 5.0 °F 24% 29.83 in 10.0 mi NW 9.2 mph - N/A   Clear
5:35 PM 39.2 °F 30.5 °F 3.2 °F 22% 29.83 in 10.0 mi NNW 16.1 mph 20.7 mph N/A   Clear
5:55 PM 37.4 °F 32.1 °F 1.4 °F 22% 29.84 in 10.0 mi West 6.9 mph 20.7 mph N/A   Clear
6:15 PM 37.4 °F 29.8 °F 1.4 °F 22% 29.85 in 10.0 mi NW 11.5 mph - N/A   Clear
6:35 PM 37.4 °F 29.8 °F 1.4 °F 22% 29.85 in 10.0 mi NW 11.5 mph 16.1 mph N/A   Clear
6:55 PM 35.6 °F 26.6 °F 1.4 °F 24% 29.86 in 10.0 mi NNW 13.8 mph 17.3 mph N/A   Clear
7:15 PM 35.6 °F 28.0 °F 1.4 °F 24% 29.87 in 10.0 mi NNW 10.4 mph 17.3 mph N/A   Clear
7:35 PM 33.8 °F 25.8 °F -0.4 °F 23% 29.87 in 10.0 mi NNW 10.4 mph - N/A   Clear
7:55 PM 33.8 °F 26.4 °F -0.4 °F 23% 29.87 in 10.0 mi NW 9.2 mph 16.1 mph N/A   Clear
8:15 PM 33.8 °F 25.8 °F -0.4 °F 23% 29.88 in 10.0 mi NW 10.4 mph - N/A   Clear
8:35 PM 32.0 °F 24.2 °F -0.4 °F 25% 29.88 in 10.0 mi NNW 9.2 mph - N/A   Clear
8:55 PM 30.2 °F 21.9 °F -0.4 °F 27% 29.88 in 10.0 mi NNW 9.2 mph - N/A   Clear
9:15 PM 30.2 °F 21.9 °F -0.4 °F 27% 29.89 in 10.0 mi NW 9.2 mph - N/A   Clear
9:35 PM 30.2 °F 21.3 °F -0.4 °F 27% 29.90 in 10.0 mi NW 10.4 mph - N/A   Clear
9:55 PM 30.2 °F 20.2 °F 1.4 °F 29% 29.90 in 10.0 mi NW 12.7 mph 17.3 mph N/A   Clear
10:15 PM 30.2 °F 21.3 °F -0.4 °F 27% 29.91 in 10.0 mi NW 10.4 mph - N/A   Clear
10:35 PM 28.4 °F 20.4 °F -0.4 °F 29% 29.91 in 10.0 mi NNW 8.1 mph 16.1 mph N/A   Clear
10:55 PM 28.4 °F 20.4 °F -0.4 °F 29% 29.92 in 10.0 mi NNW 8.1 mph 19.6 mph N/A   Clear
11:15 PM 28.4 °F 18.0 °F 1.4 °F 31% 29.92 in 10.0 mi NNW 12.7 mph 18.4 mph N/A   Clear
11:35 PM 26.6 °F 15.7 °F 1.4 °F 34% 29.93 in 10.0 mi NNW 12.7 mph 19.6 mph N/A   Clear
11:55 PM 26.6 °F 17.5 °F 1.4 °F 34% 29.93 in 10.0 mi NW 9.2 mph - N/A   Clear